Time,TemperatureF,DewpointF,PressureIn,WindDirection,WindDirectionDegrees,WindSpeedMPH,WindSpeedGustMPH,Humidity,HourlyPrecipIn,Conditions,Clouds,dailyrainin,SolarRadiationWatts/m^2,SoftwareType,DateUTC
2013-07-09 00:03:00,82.1,66.8,29.79,South,171,9.0,13.0,60,0.00,,,0.00,0,Wunderground v.1.15,2013-07-09 05:03:00,
2013-07-09 00:08:00,82.4,67.1,29.79,South,173,12.0,16.0,60,0.00,,,0.00,0,Wunderground v.1.15,2013-07-09 05:08:00,
2013-07-09 00:13:00,82.5,67.2,29.79,South,177,11.0,14.0,60,0.00,,,0.00,0,Wunderground v.1.15,2013-07-09 05:13:00,
2013-07-09 00:18:00,82.6,66.8,29.79,South,175,13.0,14.0,59,0.00,,,0.00,0,Wunderground v.1.15,2013-07-09 05:18:00,
2013-07-09 00:23:00,82.6,67.3,29.79,South,184,14.0,15.0,60,0.00,,,0.00,0,Wunderground v.1.15,2013-07-09 05:23:00,
2013-07-09 00:28:00,82.6,66.8,29.79,South,169,14.0,15.0,59,0.00,,,0.00,0,Wunderground v.1.15,2013-07-09 05:28:00,
2013-07-09 00:33:00,82.6,66.8,29.80,South,169,12.0,13.0,59,0.00,,,0.00,0,Wunderground v.1.15,2013-07-09 05:33:00,
2013-07-09 00:39:00,82.5,67.2,29.80,South,185,10.0,18.0,60,0.00,,,0.00,0,Wunderground v.1.15,2013-07-09 05:39:00,
2013-07-09 00:44:00,82.4,67.1,29.80,South,185,14.0,15.0,60,0.00,,,0.00,0,Wunderground v.1.15,2013-07-09 05:44:00,
2013-07-09 00:49:00,82.3,67.0,29.80,South,181,8.0,15.0,60,0.00,,,0.00,0,Wunderground v.1.15,2013-07-09 05:49:00,
2013-07-09 00:54:00,82.3,67.0,29.80,SSE,167,12.0,15.0,60,0.00,,,0.00,0,Wunderground v.1.15,2013-07-09 05:54:00,
2013-07-09 00:59:00,82.4,67.1,29.81,South,175,12.0,15.0,60,0.00,,,0.00,0,Wunderground v.1.15,2013-07-09 05:59:00,
2013-07-09 01:04:00,82.4,67.6,29.81,South,175,10.0,12.0,61,0.00,,,0.00,0,Wunderground v.1.15,2013-07-09 06:04:00,
2013-07-09 01:09:00,82.5,67.2,29.81,SSW,198,11.0,12.0,60,0.00,,,0.00,0,Wunderground v.1.15,2013-07-09 06:09:00,
2013-07-09 01:14:00,82.6,67.3,29.81,SSW,192,12.0,17.0,60,0.00,,,0.00,0,Wunderground v.1.15,2013-07-09 06:14:00,
2013-07-09 01:19:00,82.8,67.5,29.81,SSW,194,13.0,17.0,60,0.00,,,0.00,0,Wunderground v.1.15,2013-07-09 06:19:00,
2013-07-09 01:24:00,83.0,67.2,29.81,SSW,202,14.0,14.0,59,0.00,,,0.00,0,Wunderground v.1.15,2013-07-09 06:24:00,
2013-07-09 01:29:00,83.2,67.4,29.81,South,182,13.0,14.0,59,0.00,,,0.00,0,Wunderground v.1.15,2013-07-09 06:29:00,
2013-07-09 01:35:00,83.3,67.5,29.81,South,176,14.0,15.0,59,0.00,,,0.00,0,Wunderground v.1.15,2013-07-09 06:35:00,
2013-07-09 01:40:00,83.3,67.5,29.81,South,177,9.0,11.0,59,0.00,,,0.00,0,Wunderground v.1.15,2013-07-09 06:40:00,
2013-07-09 01:45:00,83.2,67.4,29.81,South,176,9.0,14.0,59,0.00,,,0.00,0,Wunderground v.1.15,2013-07-09 06:45:00,
2013-07-09 01:50:00,83.2,67.4,29.81,SSW,194,8.0,12.0,59,0.00,,,0.00,0,Wunderground v.1.15,2013-07-09 06:50:00,
2013-07-09 01:55:00,83.1,67.3,29.81,South,187,14.0,14.0,59,0.00,,,0.00,0,Wunderground v.1.15,2013-07-09 06:55:00,
2013-07-09 02:00:00,83.1,67.3,29.82,South,186,6.0,11.0,59,0.00,,,0.00,0,Wunderground v.1.15,2013-07-09 07:00:00,
2013-07-09 02:05:00,83.1,67.3,29.82,SSW,196,10.0,15.0,59,0.00,,,0.00,0,Wunderground v.1.15,2013-07-09 07:05:00,
2013-07-09 02:10:00,82.9,67.6,29.82,South,190,8.0,13.0,60,0.00,,,0.00,0,Wunderground v.1.15,2013-07-09 07:10:00,
2013-07-09 02:15:00,82.7,67.4,29.82,SSW,199,10.0,15.0,60,0.00,,,0.00,0,Wunderground v.1.15,2013-07-09 07:15:00,
2013-07-09 02:20:00,82.7,67.4,29.82,SSW,208,9.0,13.0,60,0.00,,,0.00,0,Wunderground v.1.15,2013-07-09 07:20:00,
2013-07-09 02:25:00,82.5,67.7,29.82,SSW,208,9.0,14.0,61,0.00,,,0.00,0,Wunderground v.1.15,2013-07-09 07:25:00,
2013-07-09 02:30:00,82.4,67.6,29.83,SSW,211,12.0,12.0,61,0.00,,,0.00,0,Wunderground v.1.15,2013-07-09 07:30:00,
2013-07-09 02:35:00,82.3,67.5,29.84,WSW,253,11.0,14.0,61,0.00,,,0.00,0,Wunderground v.1.15,2013-07-09 07:35:00,
2013-07-09 02:40:00,82.1,67.8,29.86,West,274,13.0,16.0,62,0.00,,,0.00,0,Wunderground v.1.15,2013-07-09 07:40:00,
2013-07-09 02:45:00,81.9,68.1,29.86,WSW,248,6.0,16.0,63,0.00,,,0.00,0,Wunderground v.1.15,2013-07-09 07:45:00,
2013-07-09 02:52:00,81.4,68.9,29.85,West,262,12.0,12.0,66,0.00,,,0.00,0,Wunderground v.1.15,2013-07-09 07:52:00,
2013-07-09 02:57:00,80.7,69.6,29.85,WSW,250,6.0,13.0,69,0.00,,,0.00,0,Wunderground v.1.15,2013-07-09 07:57:00,
2013-07-09 03:02:00,80.0,69.3,29.85,SW,219,10.0,13.0,70,0.00,,,0.00,0,Wunderground v.1.15,2013-07-09 08:02:00,
2013-07-09 03:07:00,79.4,69.2,29.84,SSW,207,11.0,15.0,71,0.00,,,0.00,0,Wunderground v.1.15,2013-07-09 08:07:00,
2013-07-09 03:12:00,79.0,68.8,29.84,SW,216,11.0,14.0,71,0.00,,,0.00,0,Wunderground v.1.15,2013-07-09 08:12:00,
2013-07-09 03:17:00,78.8,68.6,29.84,SW,218,7.0,18.0,71,0.00,,,0.00,0,Wunderground v.1.15,2013-07-09 08:17:00,
2013-07-09 03:22:00,78.7,67.7,29.84,WSW,242,7.0,10.0,69,0.00,,,0.00,0,Wunderground v.1.15,2013-07-09 08:22:00,
2013-07-09 03:27:00,78.7,67.2,29.84,WSW,245,7.0,10.0,68,0.00,,,0.00,0,Wunderground v.1.15,2013-07-09 08:27:00,
2013-07-09 03:32:00,78.7,67.2,29.84,WSW,253,7.0,13.0,68,0.00,,,0.00,0,Wunderground v.1.15,2013-07-09 08:32:00,
2013-07-09 03:38:00,78.8,67.8,29.84,WSW,256,12.0,17.0,69,0.00,,,0.00,0,Wunderground v.1.15,2013-07-09 08:38:00,
2013-07-09 03:43:00,78.7,67.7,29.83,WSW,242,7.0,14.0,69,0.00,,,0.00,0,Wunderground v.1.15,2013-07-09 08:43:00,
2013-07-09 03:48:00,78.4,67.8,29.84,WSW,254,10.0,14.0,70,0.00,,,0.00,0,Wunderground v.1.15,2013-07-09 08:48:00,
2013-07-09 03:53:00,77.8,68.4,29.85,SW,232,10.0,14.0,73,0.00,,,0.00,0,Wunderground v.1.15,2013-07-09 08:53:00,
2013-07-09 03:58:00,77.0,68.5,29.85,SW,224,10.0,16.0,75,0.00,,,0.01,0,Wunderground v.1.15,2013-07-09 08:58:00,
2013-07-09 04:04:00,76.3,68.2,29.83,SSW,209,7.0,13.0,76,0.00,,,0.01,0,Wunderground v.1.15,2013-07-09 09:04:00,
2013-07-09 04:09:00,75.8,68.1,29.82,SSW,200,8.0,13.0,77,0.00,,,0.01,0,Wunderground v.1.15,2013-07-09 09:09:00,
2013-07-09 04:14:00,75.5,68.5,29.82,South,185,9.0,12.0,79,0.00,,,0.01,0,Wunderground v.1.15,2013-07-09 09:14:00,
2013-07-09 04:19:00,75.2,69.0,29.82,South,184,9.0,12.0,81,0.00,,,0.01,0,Wunderground v.1.15,2013-07-09 09:19:00,
2013-07-09 04:24:00,74.9,69.0,29.82,South,183,8.0,10.0,82,0.00,,,0.01,0,Wunderground v.1.15,2013-07-09 09:24:00,
2013-07-09 04:29:00,74.6,69.1,29.81,South,185,8.0,12.0,83,0.00,,,0.01,0,Wunderground v.1.15,2013-07-09 09:29:00,
2013-07-09 04:34:00,74.4,69.2,29.80,SSE,158,12.0,12.0,84,0.00,,,0.01,0,Wunderground v.1.15,2013-07-09 09:34:00,
2013-07-09 04:39:00,74.2,69.1,29.78,SSE,159,9.0,13.0,84,0.00,,,0.01,0,Wunderground v.1.15,2013-07-09 09:39:00,
2013-07-09 04:44:00,74.3,69.1,29.78,South,170,7.0,12.0,84,0.00,,,0.01,0,Wunderground v.1.15,2013-07-09 09:44:00,
2013-07-09 04:49:00,74.3,68.8,29.78,SSE,161,8.0,12.0,83,0.00,,,0.01,0,Wunderground v.1.15,2013-07-09 09:49:00,
2013-07-09 04:54:00,74.4,68.5,29.77,SSE,147,11.0,13.0,82,0.00,,,0.01,0,Wunderground v.1.15,2013-07-09 09:54:00,
2013-07-09 04:59:00,74.5,69.0,29.76,SSE,149,9.0,13.0,83,0.00,,,0.01,0,Wunderground v.1.15,2013-07-09 09:59:00,
2013-07-09 05:04:00,74.5,69.0,29.77,SSE,167,8.0,11.0,83,0.00,,,0.01,0,Wunderground v.1.15,2013-07-09 10:04:00,
2013-07-09 05:09:00,74.4,68.5,29.76,South,180,8.0,14.0,82,0.00,,,0.01,0,Wunderground v.1.15,2013-07-09 10:09:00,
2013-07-09 05:14:00,74.4,68.9,29.77,South,176,13.0,14.0,83,0.00,,,0.01,0,Wunderground v.1.15,2013-07-09 10:14:00,
2013-07-09 05:19:00,74.4,68.9,29.77,South,184,11.0,17.0,83,0.00,,,0.01,0,Wunderground v.1.15,2013-07-09 10:19:00,
2013-07-09 05:24:00,74.6,69.1,29.77,South,188,15.0,16.0,83,0.00,,,0.01,0,Wunderground v.1.15,2013-07-09 10:24:00,
2013-07-09 05:29:00,74.7,69.2,29.77,South,187,11.0,17.0,83,0.00,,,0.01,0,Wunderground v.1.15,2013-07-09 10:29:00,
2013-07-09 05:34:00,74.7,69.2,29.77,South,181,10.0,15.0,83,0.00,,,0.01,0,Wunderground v.1.15,2013-07-09 10:34:00,
2013-07-09 05:39:00,74.6,69.1,29.77,South,184,9.0,15.0,83,0.00,,,0.01,0,Wunderground v.1.15,2013-07-09 10:39:00,
2013-07-09 05:44:00,74.6,69.1,29.78,South,189,10.0,14.0,83,0.00,,,0.01,0,Wunderground v.1.15,2013-07-09 10:44:00,
2013-07-09 05:49:00,74.5,69.0,29.78,SSW,196,9.0,14.0,83,0.00,,,0.01,0,Wunderground v.1.15,2013-07-09 10:49:00,
2013-07-09 05:54:00,74.4,68.9,29.78,South,180,6.0,10.0,83,0.00,,,0.01,0,Wunderground v.1.15,2013-07-09 10:54:00,
2013-07-09 05:59:00,74.3,69.1,29.78,South,187,10.0,11.0,84,0.00,,,0.01,0,Wunderground v.1.15,2013-07-09 10:59:00,
2013-07-09 06:04:00,74.2,69.1,29.78,South,183,11.0,14.0,84,0.00,,,0.01,0,Wunderground v.1.15,2013-07-09 11:04:00,
2013-07-09 06:09:00,74.1,69.0,29.77,South,186,11.0,15.0,84,0.00,,,0.01,0,Wunderground v.1.15,2013-07-09 11:09:00,
2013-07-09 06:14:00,74.2,69.1,29.78,South,175,11.0,14.0,84,0.00,,,0.01,0,Wunderground v.1.15,2013-07-09 11:14:00,
2013-07-09 06:19:00,74.4,69.2,29.77,SSE,166,13.0,15.0,84,0.00,,,0.01,0,Wunderground v.1.15,2013-07-09 11:19:00,
2013-07-09 06:25:00,74.5,69.3,29.77,South,170,9.0,14.0,84,0.00,,,0.01,5,Wunderground v.1.15,2013-07-09 11:25:00,
2013-07-09 06:30:00,74.6,69.1,29.77,South,178,7.0,10.0,83,0.00,,,0.01,7,Wunderground v.1.15,2013-07-09 11:30:00,
2013-07-09 06:35:00,74.6,69.1,29.77,South,179,14.0,16.0,83,0.00,,,0.01,7,Wunderground v.1.15,2013-07-09 11:35:00,
2013-07-09 06:40:00,74.7,69.2,29.76,South,176,9.0,11.0,83,0.00,,,0.01,9,Wunderground v.1.15,2013-07-09 11:40:00,
2013-07-09 06:45:00,74.7,69.2,29.77,South,182,9.0,15.0,83,0.00,,,0.01,12,Wunderground v.1.15,2013-07-09 11:45:00,
2013-07-09 06:50:00,74.7,69.2,29.76,South,174,12.0,12.0,83,0.00,,,0.01,19,Wunderground v.1.15,2013-07-09 11:50:00,
2013-07-09 06:55:00,74.7,69.5,29.76,South,182,12.0,15.0,84,0.00,,,0.01,28,Wunderground v.1.15,2013-07-09 11:55:00,
2013-07-09 07:00:00,74.7,69.5,29.76,SSW,196,9.0,11.0,84,0.00,,,0.01,44,Wunderground v.1.15,2013-07-09 12:00:00,
2013-07-09 07:05:00,74.8,69.6,29.76,South,184,11.0,15.0,84,0.00,,,0.01,91,Wunderground v.1.15,2013-07-09 12:05:00,
2013-07-09 07:10:00,75.1,69.9,29.76,South,182,13.0,13.0,84,0.00,,,0.01,109,Wunderground v.1.15,2013-07-09 12:10:00,
2013-07-09 07:15:00,75.5,70.0,29.76,South,176,12.0,17.0,83,0.00,,,0.01,132,Wunderground v.1.15,2013-07-09 12:15:00,
2013-07-09 07:20:00,76.0,70.5,29.76,South,187,12.0,12.0,83,0.00,,,0.01,153,Wunderground v.1.15,2013-07-09 12:20:00,
2013-07-09 07:25:00,76.3,70.4,29.76,SSW,193,14.0,15.0,82,0.00,,,0.01,174,Wunderground v.1.15,2013-07-09 12:25:00,
2013-07-09 07:30:00,76.7,70.8,29.76,South,178,13.0,13.0,82,0.00,,,0.01,183,Wunderground v.1.15,2013-07-09 12:30:00,
2013-07-09 07:35:00,77.0,70.7,29.76,SSW,192,10.0,16.0,81,0.00,,,0.01,195,Wunderground v.1.15,2013-07-09 12:35:00,
2013-07-09 07:40:00,77.3,70.6,29.76,SSW,200,14.0,16.0,80,0.00,,,0.01,207,Wunderground v.1.15,2013-07-09 12:40:00,
2013-07-09 07:45:00,77.6,70.9,29.75,South,175,11.0,19.0,80,0.00,,,0.01,236,Wunderground v.1.15,2013-07-09 12:45:00,
2013-07-09 07:50:00,78.0,71.0,29.76,SSW,199,11.0,13.0,79,0.00,,,0.01,253,Wunderground v.1.15,2013-07-09 12:50:00,
2013-07-09 07:55:00,78.4,71.3,29.77,SSW,198,10.0,16.0,79,0.00,,,0.01,269,Wunderground v.1.15,2013-07-09 12:55:00,
2013-07-09 08:00:00,78.7,71.3,29.77,SSW,196,11.0,12.0,78,0.00,,,0.01,162,Wunderground v.1.15,2013-07-09 13:00:00,
2013-07-09 08:05:00,78.7,70.9,29.77,SSW,197,8.0,15.0,77,0.00,,,0.01,130,Wunderground v.1.15,2013-07-09 13:05:00,
2013-07-09 08:10:00,78.6,70.8,29.77,SSW,198,10.0,12.0,77,0.00,,,0.01,120,Wunderground v.1.15,2013-07-09 13:10:00,
2013-07-09 08:15:00,78.6,71.2,29.78,SW,215,9.0,13.0,78,0.00,,,0.01,141,Wunderground v.1.15,2013-07-09 13:15:00,
2013-07-09 08:20:00,78.7,71.3,29.78,SW,221,8.0,12.0,78,0.00,,,0.01,220,Wunderground v.1.15,2013-07-09 13:20:00,
2013-07-09 08:25:00,79.0,71.6,29.79,SSW,213,5.0,12.0,78,0.00,,,0.01,153,Wunderground v.1.15,2013-07-09 13:25:00,
2013-07-09 08:30:00,79.1,71.6,29.78,SSW,206,7.0,9.0,78,0.00,,,0.01,137,Wunderground v.1.15,2013-07-09 13:30:00,
2013-07-09 08:35:00,79.3,71.5,29.78,SSW,213,6.0,12.0,77,0.00,,,0.01,128,Wunderground v.1.15,2013-07-09 13:35:00,
2013-07-09 08:40:00,79.4,71.6,29.79,SW,215,10.0,12.0,77,0.00,,,0.01,148,Wunderground v.1.15,2013-07-09 13:40:00,
2013-07-09 08:45:00,79.6,71.8,29.79,SSW,199,6.0,12.0,77,0.00,,,0.01,148,Wunderground v.1.15,2013-07-09 13:45:00,
2013-07-09 08:50:00,79.9,72.4,29.79,SSW,195,8.0,8.0,78,0.00,,,0.01,209,Wunderground v.1.15,2013-07-09 13:50:00,
2013-07-09 08:55:00,80.5,72.6,29.79,SSW,200,5.0,11.0,77,0.00,,,0.01,483,Wunderground v.1.15,2013-07-09 13:55:00,
2013-07-09 09:01:00,81.2,72.9,29.79,SW,219,10.0,10.0,76,0.00,,,0.01,522,Wunderground v.1.15,2013-07-09 14:01:00,
2013-07-09 09:06:00,82.1,73.0,29.79,SSW,213,4.0,11.0,74,0.00,,,0.01,497,Wunderground v.1.15,2013-07-09 14:06:00,
2013-07-09 09:11:00,82.8,72.8,29.80,WSW,241,8.0,11.0,72,0.00,,,0.01,508,Wunderground v.1.15,2013-07-09 14:11:00,
2013-07-09 09:16:00,83.4,72.6,29.80,SW,219,4.0,11.0,70,0.00,,,0.01,478,Wunderground v.1.15,2013-07-09 14:16:00,
2013-07-09 09:21:00,84.0,72.7,29.80,SW,225,7.0,7.0,69,0.00,,,0.01,483,Wunderground v.1.15,2013-07-09 14:21:00,
2013-07-09 09:26:00,84.4,72.2,29.81,WSW,239,5.0,12.0,67,0.00,,,0.01,496,Wunderground v.1.15,2013-07-09 14:26:00,
2013-07-09 09:31:00,84.7,72.5,29.81,SSW,208,4.0,7.0,67,0.00,,,0.01,512,Wunderground v.1.15,2013-07-09 14:31:00,
2013-07-09 09:36:00,85.1,72.5,29.81,SSW,207,4.0,9.0,66,0.00,,,0.01,527,Wunderground v.1.15,2013-07-09 14:36:00,
2013-07-09 09:41:00,85.6,72.9,29.81,South,187,6.0,8.0,66,0.00,,,0.01,543,Wunderground v.1.15,2013-07-09 14:41:00,
2013-07-09 09:46:00,86.1,73.4,29.80,WSW,239,6.0,10.0,66,0.00,,,0.01,561,Wunderground v.1.15,2013-07-09 14:46:00,
2013-07-09 09:51:00,86.4,73.2,29.80,SW,225,7.0,11.0,65,0.00,,,0.01,571,Wunderground v.1.15,2013-07-09 14:51:00,
2013-07-09 09:56:00,86.7,72.6,29.80,SW,227,6.0,13.0,63,0.00,,,0.01,589,Wunderground v.1.15,2013-07-09 14:56:00,
2013-07-09 10:01:00,87.0,72.9,29.81,SW,235,8.0,12.0,63,0.00,,,0.01,598,Wunderground v.1.15,2013-07-09 15:01:00,
2013-07-09 10:06:00,87.2,72.6,29.80,WSW,238,11.0,12.0,62,0.00,,,0.01,613,Wunderground v.1.15,2013-07-09 15:06:00,
2013-07-09 10:11:00,87.5,73.8,29.80,WSW,245,12.0,14.0,64,0.00,,,0.01,626,Wunderground v.1.15,2013-07-09 15:11:00,
2013-07-09 10:16:00,87.7,72.6,29.80,WSW,239,11.0,14.0,61,0.00,,,0.01,638,Wunderground v.1.15,2013-07-09 15:16:00,
2013-07-09 10:21:00,87.8,73.2,29.80,WSW,254,11.0,11.0,62,0.00,,,0.01,652,Wunderground v.1.15,2013-07-09 15:21:00,
2013-07-09 10:26:00,87.9,72.3,29.81,WSW,247,10.0,13.0,60,0.00,,,0.01,661,Wunderground v.1.15,2013-07-09 15:26:00,
2013-07-09 10:31:00,88.1,73.0,29.80,SW,230,11.0,15.0,61,0.00,,,0.01,675,Wunderground v.1.15,2013-07-09 15:31:00,
2013-07-09 10:36:00,88.3,72.2,29.80,SW,236,10.0,16.0,59,0.00,,,0.01,687,Wunderground v.1.15,2013-07-09 15:36:00,
2013-07-09 10:41:00,88.5,71.8,29.81,SW,230,8.0,12.0,58,0.00,,,0.01,700,Wunderground v.1.15,2013-07-09 15:41:00,
2013-07-09 10:46:00,88.6,73.4,29.80,West,265,10.0,12.0,61,0.00,,,0.01,712,Wunderground v.1.15,2013-07-09 15:46:00,
2013-07-09 10:51:00,88.8,72.6,29.80,West,275,11.0,14.0,59,0.00,,,0.01,722,Wunderground v.1.15,2013-07-09 15:51:00,
2013-07-09 10:57:00,88.7,72.5,29.80,West,265,7.0,15.0,59,0.00,,,0.01,733,Wunderground v.1.15,2013-07-09 15:57:00,
2013-07-09 11:02:00,88.8,73.1,29.80,WSW,242,7.0,11.0,60,0.00,,,0.01,745,Wunderground v.1.15,2013-07-09 16:02:00,
2013-07-09 11:07:00,89.1,72.9,29.80,West,266,7.0,13.0,59,0.00,,,0.01,754,Wunderground v.1.15,2013-07-09 16:07:00,
2013-07-09 11:12:00,89.4,72.7,29.80,WSW,246,8.0,12.0,58,0.00,,,0.01,765,Wunderground v.1.15,2013-07-09 16:12:00,
2013-07-09 11:17:00,89.5,71.7,29.80,WSW,243,6.0,12.0,56,0.00,,,0.01,775,Wunderground v.1.15,2013-07-09 16:17:00,
2013-07-09 11:22:00,89.8,72.5,29.80,West,261,6.0,8.0,57,0.00,,,0.01,784,Wunderground v.1.15,2013-07-09 16:22:00,
2013-07-09 11:27:00,90.2,73.4,29.80,SW,236,7.0,10.0,58,0.00,,,0.01,795,Wunderground v.1.15,2013-07-09 16:27:00,
2013-07-09 11:32:00,90.4,72.6,29.81,SW,234,8.0,10.0,56,0.00,,,0.01,803,Wunderground v.1.15,2013-07-09 16:32:00,
2013-07-09 11:37:00,90.6,72.8,29.80,West,272,1.0,10.0,56,0.00,,,0.01,810,Wunderground v.1.15,2013-07-09 16:37:00,
2013-07-09 11:42:00,90.8,72.9,29.80,SSW,213,6.0,7.0,56,0.00,,,0.01,819,Wunderground v.1.15,2013-07-09 16:42:00,
2013-07-09 11:47:00,91.3,73.9,29.80,SSE,157,0.0,7.0,57,0.00,,,0.01,830,Wunderground v.1.15,2013-07-09 16:47:00,
2013-07-09 11:52:00,91.6,74.2,29.80,NNW,344,2.0,6.0,57,0.00,,,0.01,846,Wunderground v.1.15,2013-07-09 16:52:00,
2013-07-09 11:57:00,92.0,72.4,29.80,SW,229,1.0,6.0,53,0.00,,,0.01,847,Wunderground v.1.15,2013-07-09 16:57:00,
2013-07-09 12:02:00,92.4,73.3,29.80,SW,231,2.0,4.0,54,0.00,,,0.01,853,Wunderground v.1.15,2013-07-09 17:02:00,
2013-07-09 12:07:00,92.4,72.8,29.80,West,263,2.0,9.0,53,0.00,,,0.01,856,Wunderground v.1.15,2013-07-09 17:07:00,
2013-07-09 12:12:00,92.4,72.8,29.80,WSW,252,1.0,4.0,53,0.00,,,0.01,861,Wunderground v.1.15,2013-07-09 17:12:00,
2013-07-09 12:18:00,92.5,71.7,29.80,WNW,294,6.0,9.0,51,0.00,,,0.01,867,Wunderground v.1.15,2013-07-09 17:18:00,
2013-07-09 12:22:00,92.3,72.7,29.80,WNW,295,5.0,7.0,53,0.00,,,0.01,868,Wunderground v.1.15,2013-07-09 17:22:00,
2013-07-09 12:27:00,92.2,71.5,29.80,NW,321,0.0,8.0,51,0.00,,,0.01,877,Wunderground v.1.15,2013-07-09 17:27:00,
2013-07-09 12:33:00,92.5,72.3,29.80,West,262,3.0,4.0,52,0.00,,,0.01,884,Wunderground v.1.15,2013-07-09 17:33:00,
2013-07-09 12:38:00,92.8,72.0,29.79,NE,52,2.0,7.0,51,0.00,,,0.01,889,Wunderground v.1.15,2013-07-09 17:38:00,
2013-07-09 12:43:00,92.9,72.7,29.79,West,279,5.0,9.0,52,0.00,,,0.01,893,Wunderground v.1.15,2013-07-09 17:43:00,
2013-07-09 12:48:00,93.0,73.9,29.80,WSW,253,2.0,9.0,54,0.00,,,0.01,896,Wunderground v.1.15,2013-07-09 17:48:00,
2013-07-09 12:53:00,93.3,72.5,29.79,WNW,284,4.0,7.0,51,0.00,,,0.01,904,Wunderground v.1.15,2013-07-09 17:53:00,
2013-07-09 12:58:00,93.6,74.5,29.80,SW,223,2.0,7.0,54,0.00,,,0.01,909,Wunderground v.1.15,2013-07-09 17:58:00,
2013-07-09 13:03:00,94.0,73.1,29.79,WNW,290,6.0,9.0,51,0.00,,,0.01,909,Wunderground v.1.15,2013-07-09 18:03:00,
2013-07-09 13:08:00,94.1,72.0,29.79,WNW,288,4.0,9.0,49,0.00,,,0.01,909,Wunderground v.1.15,2013-07-09 18:08:00,
2013-07-09 13:13:00,94.2,71.5,29.79,WNW,288,1.0,7.0,48,0.00,,,0.01,911,Wunderground v.1.15,2013-07-09 18:13:00,
2013-07-09 13:18:00,94.0,71.3,29.79,WNW,282,0.0,7.0,48,0.00,,,0.01,911,Wunderground v.1.15,2013-07-09 18:18:00,
2013-07-09 13:23:00,94.3,71.6,29.79,WNW,282,0.0,3.0,48,0.00,,,0.01,918,Wunderground v.1.15,2013-07-09 18:23:00,
2013-07-09 13:28:00,94.6,71.9,29.79,NE,53,4.0,4.0,48,0.00,,,0.01,912,Wunderground v.1.15,2013-07-09 18:28:00,
2013-07-09 13:33:00,94.8,73.3,29.79,SSW,208,4.0,5.0,50,0.00,,,0.01,916,Wunderground v.1.15,2013-07-09 18:33:00,
2013-07-09 13:38:00,95.3,71.9,29.79,WSW,242,3.0,7.0,47,0.00,,,0.01,916,Wunderground v.1.15,2013-07-09 18:38:00,
2013-07-09 13:43:00,95.4,72.0,29.79,WSW,240,7.0,8.0,47,0.00,,,0.01,912,Wunderground v.1.15,2013-07-09 18:43:00,
2013-07-09 13:48:00,95.6,73.4,29.79,SW,215,5.0,8.0,49,0.00,,,0.01,911,Wunderground v.1.15,2013-07-09 18:48:00,
2013-07-09 13:53:00,96.1,72.6,29.79,South,173,2.0,7.0,47,0.00,,,0.01,912,Wunderground v.1.15,2013-07-09 18:53:00,
2013-07-09 13:58:00,96.7,72.5,29.79,South,169,0.0,7.0,46,0.00,,,0.01,911,Wunderground v.1.15,2013-07-09 18:58:00,
2013-07-09 14:03:00,96.9,75.2,29.79,SSE,162,4.0,5.0,50,0.00,,,0.01,907,Wunderground v.1.15,2013-07-09 19:03:00,
2013-07-09 14:09:00,97.5,73.9,29.78,SSE,166,5.0,7.0,47,0.00,,,0.01,907,Wunderground v.1.15,2013-07-09 19:09:00,
2013-07-09 14:14:00,97.7,72.1,29.78,South,184,0.0,5.0,44,0.00,,,0.01,902,Wunderground v.1.15,2013-07-09 19:14:00,
2013-07-09 14:19:00,97.6,74.0,29.78,ESE,107,4.0,9.0,47,0.00,,,0.01,900,Wunderground v.1.15,2013-07-09 19:19:00,
2013-07-09 14:24:00,97.8,73.5,29.78,ESE,120,0.0,6.0,46,0.00,,,0.01,893,Wunderground v.1.15,2013-07-09 19:24:00,
2013-07-09 14:29:00,98.0,72.4,29.78,SSW,198,1.0,6.0,44,0.00,,,0.01,893,Wunderground v.1.15,2013-07-09 19:29:00,
2013-07-09 14:34:00,98.1,73.1,29.78,SSW,200,4.0,8.0,45,0.00,,,0.01,889,Wunderground v.1.15,2013-07-09 19:34:00,
2013-07-09 14:39:00,98.5,72.8,29.78,SSW,199,3.0,8.0,44,0.00,,,0.01,881,Wunderground v.1.15,2013-07-09 19:39:00,
2013-07-09 14:44:00,98.5,74.8,29.78,SSW,211,4.0,4.0,47,0.00,,,0.01,877,Wunderground v.1.15,2013-07-09 19:44:00,
2013-07-09 14:49:00,98.6,76.1,29.78,ESE,122,2.0,7.0,49,0.00,,,0.01,872,Wunderground v.1.15,2013-07-09 19:49:00,
2013-07-09 14:54:00,98.9,74.5,29.78,South,182,3.0,4.0,46,0.00,,,0.01,865,Wunderground v.1.15,2013-07-09 19:54:00,
2013-07-09 14:59:00,98.9,73.9,29.78,WSW,250,2.0,5.0,45,0.00,,,0.01,860,Wunderground v.1.15,2013-07-09 19:59:00,
2013-07-09 15:04:00,98.7,75.0,29.78,West,281,5.0,7.0,47,0.00,,,0.01,853,Wunderground v.1.15,2013-07-09 20:04:00,
2013-07-09 15:09:00,98.0,73.7,29.78,WNW,286,2.0,7.0,46,0.00,,,0.01,847,Wunderground v.1.15,2013-07-09 20:09:00,
2013-07-09 15:14:00,97.7,73.4,29.78,NW,310,4.0,8.0,46,0.00,,,0.01,840,Wunderground v.1.15,2013-07-09 20:14:00,
2013-07-09 15:19:00,97.7,74.1,29.78,SE,139,7.0,10.0,47,0.00,,,0.01,830,Wunderground v.1.15,2013-07-09 20:19:00,
2013-07-09 15:24:00,98.0,75.0,29.78,SSW,205,6.0,9.0,48,0.00,,,0.01,823,Wunderground v.1.15,2013-07-09 20:24:00,
2013-07-09 15:29:00,98.4,74.1,29.78,South,169,7.0,9.0,46,0.00,,,0.01,816,Wunderground v.1.15,2013-07-09 20:29:00,
2013-07-09 15:34:00,98.7,73.0,29.78,SE,127,4.0,8.0,44,0.00,,,0.01,805,Wunderground v.1.15,2013-07-09 20:34:00,
2013-07-09 15:39:00,98.8,74.4,29.78,SE,142,2.0,8.0,46,0.00,,,0.01,800,Wunderground v.1.15,2013-07-09 20:39:00,
2013-07-09 15:44:00,99.0,74.6,29.77,SE,131,2.0,5.0,46,0.00,,,0.01,795,Wunderground v.1.15,2013-07-09 20:44:00,
2013-07-09 15:50:00,99.2,73.5,29.77,SW,214,0.0,2.0,44,0.00,,,0.01,789,Wunderground v.1.15,2013-07-09 20:50:00,
2013-07-09 15:55:00,99.3,73.5,29.77,SSW,194,5.0,8.0,44,0.00,,,0.01,779,Wunderground v.1.15,2013-07-09 20:55:00,
2013-07-09 16:00:00,99.5,71.6,29.77,SW,226,4.0,4.0,41,0.00,,,0.01,770,Wunderground v.1.15,2013-07-09 21:00:00,
2013-07-09 16:05:00,99.3,71.4,29.77,North,355,1.0,4.0,41,0.00,,,0.01,759,Wunderground v.1.15,2013-07-09 21:05:00,
2013-07-09 16:09:00,99.1,72.0,29.77,ENE,63,3.0,4.0,42,0.00,,,0.01,738,Wunderground v.1.15,2013-07-09 21:09:00,
2013-07-09 16:10:00,99.1,72.0,29.77,ENE,63,2.0,3.0,42,0.00,,,0.01,738,Wunderground v.1.15,2013-07-09 21:10:00,
2013-07-09 16:15:00,98.9,72.5,29.76,East,83,2.0,4.0,43,0.00,,,0.01,738,Wunderground v.1.15,2013-07-09 21:15:00,
2013-07-09 16:20:00,98.9,72.5,29.76,North,360,1.0,2.0,43,0.00,,,0.01,726,Wunderground v.1.15,2013-07-09 21:20:00,
2013-07-09 16:25:00,98.9,72.5,29.76,WNW,300,5.0,5.0,43,0.00,,,0.01,719,Wunderground v.1.15,2013-07-09 21:25:00,
2013-07-09 16:30:00,99.1,71.3,29.76,SW,215,2.0,3.0,41,0.00,,,0.01,708,Wunderground v.1.15,2013-07-09 21:30:00,
2013-07-09 16:35:00,99.5,73.0,29.76,SSW,194,0.0,4.0,43,0.00,,,0.01,694,Wunderground v.1.15,2013-07-09 21:35:00,
2013-07-09 16:40:00,99.8,76.6,29.76,SSW,194,1.0,2.0,48,0.00,,,0.01,682,Wunderground v.1.15,2013-07-09 21:40:00,
2013-07-09 16:45:00,99.9,75.4,29.76,ESE,123,1.0,5.0,46,0.00,,,0.01,668,Wunderground v.1.15,2013-07-09 21:45:00,
2013-07-09 16:50:00,99.3,73.5,29.76,NE,52,4.0,4.0,44,0.00,,,0.01,659,Wunderground v.1.15,2013-07-09 21:50:00,
2013-07-09 16:55:00,98.7,74.3,29.75,NE,44,0.0,5.0,46,0.00,,,0.01,642,Wunderground v.1.15,2013-07-09 21:55:00,
2013-07-09 17:00:00,98.3,74.0,29.76,NE,54,2.0,3.0,46,0.00,,,0.01,633,Wunderground v.1.15,2013-07-09 22:00:00,
2013-07-09 17:05:00,98.0,74.3,29.76,NE,38,4.0,6.0,47,0.00,,,0.01,613,Wunderground v.1.15,2013-07-09 22:05:00,
2013-07-09 17:10:00,97.7,73.4,29.76,NE,39,3.0,4.0,46,0.00,,,0.01,605,Wunderground v.1.15,2013-07-09 22:10:00,
2013-07-09 17:16:00,97.5,73.2,29.76,North,355,4.0,7.0,46,0.00,,,0.01,589,Wunderground v.1.15,2013-07-09 22:16:00,
2013-07-09 17:21:00,97.6,74.0,29.76,NNE,21,4.0,5.0,47,0.00,,,0.01,573,Wunderground v.1.15,2013-07-09 22:21:00,
2013-07-09 17:26:00,97.4,73.1,29.76,NNE,27,2.0,6.0,46,0.00,,,0.01,557,Wunderground v.1.15,2013-07-09 22:26:00,
2013-07-09 17:31:00,97.1,72.9,29.76,NNE,28,1.0,3.0,46,0.00,,,0.01,543,Wunderground v.1.15,2013-07-09 22:31:00,
2013-07-09 17:36:00,97.3,73.7,29.76,NNE,28,2.0,3.0,47,0.00,,,0.01,531,Wunderground v.1.15,2013-07-09 22:36:00,
2013-07-09 17:41:00,97.4,73.1,29.76,North,9,3.0,5.0,46,0.00,,,0.01,517,Wunderground v.1.15,2013-07-09 22:41:00,
2013-07-09 17:46:00,97.6,73.3,29.75,North,11,3.0,5.0,46,0.00,,,0.01,503,Wunderground v.1.15,2013-07-09 22:46:00,
2013-07-09 17:51:00,97.6,72.7,29.75,NNE,26,5.0,8.0,45,0.00,,,0.01,485,Wunderground v.1.15,2013-07-09 22:51:00,
2013-07-09 17:56:00,97.2,73.0,29.75,NNE,24,3.0,8.0,46,0.00,,,0.01,473,Wunderground v.1.15,2013-07-09 22:56:00,
2013-07-09 18:01:00,96.9,73.3,29.75,NNE,24,5.0,9.0,47,0.00,,,0.01,459,Wunderground v.1.15,2013-07-09 23:01:00,
2013-07-09 18:06:00,96.4,73.5,29.75,NE,44,5.0,9.0,48,0.00,,,0.01,446,Wunderground v.1.15,2013-07-09 23:06:00,
2013-07-09 18:11:00,96.0,75.0,29.75,NNE,26,8.0,9.0,51,0.00,,,0.01,427,Wunderground v.1.15,2013-07-09 23:11:00,
2013-07-09 18:17:00,95.5,73.9,29.75,NE,34,4.0,9.0,50,0.00,,,0.01,413,Wunderground v.1.15,2013-07-09 23:17:00,
2013-07-09 18:22:00,95.2,74.8,29.75,ENE,58,3.0,6.0,52,0.00,,,0.01,396,Wunderground v.1.15,2013-07-09 23:22:00,
2013-07-09 18:27:00,94.9,75.7,29.74,NE,40,6.0,7.0,54,0.00,,,0.01,381,Wunderground v.1.15,2013-07-09 23:27:00,
2013-07-09 18:32:00,94.6,76.5,29.75,NE,45,3.0,5.0,56,0.00,,,0.01,366,Wunderground v.1.15,2013-07-09 23:32:00,
2013-07-09 18:37:00,94.4,74.6,29.75,NE,49,6.0,8.0,53,0.00,,,0.01,350,Wunderground v.1.15,2013-07-09 23:37:00,
2013-07-09 18:42:00,94.1,73.2,29.74,NE,42,5.0,6.0,51,0.00,,,0.01,338,Wunderground v.1.15,2013-07-09 23:42:00,
2013-07-09 18:47:00,93.9,74.2,29.75,NE,52,3.0,6.0,53,0.00,,,0.01,323,Wunderground v.1.15,2013-07-09 23:47:00,
2013-07-09 18:52:00,93.8,75.2,29.74,NE,44,5.0,6.0,55,0.00,,,0.01,309,Wunderground v.1.15,2013-07-09 23:52:00,
2013-07-09 18:57:00,93.6,74.5,29.75,NNE,28,4.0,6.0,54,0.00,,,0.01,294,Wunderground v.1.15,2013-07-09 23:57:00,
2013-07-09 19:02:00,93.4,73.7,29.75,NNE,27,3.0,7.0,53,0.00,,,0.01,278,Wunderground v.1.15,2013-07-10 00:02:00,
2013-07-09 19:07:00,93.2,73.5,29.75,NNE,32,3.0,7.0,53,0.00,,,0.01,264,Wunderground v.1.15,2013-07-10 00:07:00,
2013-07-09 19:12:00,93.1,74.5,29.75,NNE,23,4.0,6.0,55,0.00,,,0.01,248,Wunderground v.1.15,2013-07-10 00:12:00,
2013-07-09 19:17:00,93.0,75.0,29.75,NNE,26,4.0,6.0,56,0.00,,,0.01,234,Wunderground v.1.15,2013-07-10 00:17:00,
2013-07-09 19:22:00,92.8,75.3,29.75,NE,34,3.0,5.0,57,0.00,,,0.01,220,Wunderground v.1.15,2013-07-10 00:22:00,
2013-07-09 19:27:00,92.7,76.3,29.75,NE,37,3.0,5.0,59,0.00,,,0.01,206,Wunderground v.1.15,2013-07-10 00:27:00,
2013-07-09 19:32:00,92.4,76.0,29.75,NE,41,4.0,5.0,59,0.00,,,0.01,188,Wunderground v.1.15,2013-07-10 00:32:00,
2013-07-09 19:37:00,92.1,75.7,29.75,NE,38,4.0,6.0,59,0.00,,,0.01,171,Wunderground v.1.15,2013-07-10 00:37:00,
2013-07-09 19:42:00,91.9,75.5,29.75,NE,36,3.0,4.0,59,0.00,,,0.01,153,Wunderground v.1.15,2013-07-10 00:42:00,
2013-07-09 19:47:00,91.6,76.2,29.75,NE,36,3.0,5.0,61,0.00,,,0.01,132,Wunderground v.1.15,2013-07-10 00:47:00,
2013-07-09 19:52:00,91.4,76.5,29.75,NNE,20,4.0,5.0,62,0.00,,,0.01,118,Wunderground v.1.15,2013-07-10 00:52:00,
2013-07-09 19:57:00,91.2,76.8,29.75,NNE,20,4.0,5.0,63,0.00,,,0.01,95,Wunderground v.1.15,2013-07-10 00:57:00,
2013-07-09 20:02:00,91.0,76.7,29.76,North,9,3.0,5.0,63,0.00,,,0.01,53,Wunderground v.1.15,2013-07-10 01:02:00,
2013-07-09 20:07:00,90.5,75.7,29.76,NNE,15,6.0,6.0,62,0.00,,,0.01,49,Wunderground v.1.15,2013-07-10 01:07:00,
2013-07-09 20:12:00,90.0,75.7,29.76,North,11,4.0,5.0,63,0.00,,,0.01,39,Wunderground v.1.15,2013-07-10 01:12:00,
2013-07-09 20:17:00,89.4,75.6,29.76,North,11,5.0,5.0,64,0.00,,,0.01,25,Wunderground v.1.15,2013-07-10 01:17:00,
2013-07-09 20:22:00,89.0,76.2,29.77,North,9,4.0,4.0,66,0.00,,,0.01,19,Wunderground v.1.15,2013-07-10 01:22:00,
2013-07-09 20:27:00,88.6,75.8,29.77,North,5,4.0,5.0,66,0.00,,,0.01,14,Wunderground v.1.15,2013-07-10 01:27:00,
2013-07-09 20:32:00,88.0,75.2,29.77,North,5,3.0,5.0,66,0.00,,,0.01,11,Wunderground v.1.15,2013-07-10 01:32:00,
2013-07-09 20:37:00,87.5,75.2,29.77,North,5,3.0,5.0,67,0.00,,,0.01,9,Wunderground v.1.15,2013-07-10 01:37:00,
2013-07-09 20:43:00,86.8,75.0,29.77,North,5,2.0,4.0,68,0.00,,,0.01,7,Wunderground v.1.15,2013-07-10 01:43:00,
2013-07-09 20:47:00,86.1,75.2,29.77,North,5,2.0,4.0,70,0.00,,,0.01,7,Wunderground v.1.15,2013-07-10 01:47:00,
2013-07-09 20:53:00,85.4,74.9,29.77,North,5,2.0,4.0,71,0.00,,,0.01,5,Wunderground v.1.15,2013-07-10 01:53:00,
2013-07-09 20:58:00,84.8,74.8,29.77,North,5,4.0,4.0,72,0.00,,,0.01,0,Wunderground v.1.15,2013-07-10 01:58:00,
2013-07-09 21:03:00,84.1,74.5,29.77,North,5,4.0,5.0,73,0.00,,,0.01,0,Wunderground v.1.15,2013-07-10 02:03:00,
2013-07-09 21:08:00,83.4,73.8,29.77,NNE,17,4.0,9.0,73,0.00,,,0.01,0,Wunderground v.1.15,2013-07-10 02:08:00,
2013-07-09 21:13:00,83.0,73.9,29.77,NNE,17,4.0,6.0,74,0.00,,,0.01,0,Wunderground v.1.15,2013-07-10 02:13:00,
2013-07-09 21:18:00,82.7,73.6,29.77,NNE,15,5.0,6.0,74,0.00,,,0.01,0,Wunderground v.1.15,2013-07-10 02:18:00,
2013-07-09 21:23:00,82.4,73.3,29.77,North,360,4.0,7.0,74,0.00,,,0.01,0,Wunderground v.1.15,2013-07-10 02:23:00,
2013-07-09 21:28:00,82.3,73.6,29.77,North,11,4.0,7.0,75,0.00,,,0.01,0,Wunderground v.1.15,2013-07-10 02:28:00,
2013-07-09 21:33:00,82.1,73.4,29.78,North,10,4.0,6.0,75,0.00,,,0.01,0,Wunderground v.1.15,2013-07-10 02:33:00,
2013-07-09 21:38:00,81.8,73.5,29.79,North,360,5.0,7.0,76,0.00,,,0.01,0,Wunderground v.1.15,2013-07-10 02:38:00,
2013-07-09 21:43:00,81.6,73.3,29.78,NNE,29,5.0,6.0,76,0.00,,,0.01,0,Wunderground v.1.15,2013-07-10 02:43:00,
2013-07-09 21:48:00,81.4,73.1,29.78,NNE,26,4.0,6.0,76,0.00,,,0.01,0,Wunderground v.1.15,2013-07-10 02:48:00,
2013-07-09 21:53:00,81.2,73.3,29.77,NE,36,4.0,6.0,77,0.00,,,0.01,0,Wunderground v.1.15,2013-07-10 02:53:00,
2013-07-09 21:58:00,81.1,73.2,29.77,NE,50,6.0,6.0,77,0.00,,,0.01,0,Wunderground v.1.15,2013-07-10 02:58:00,
2013-07-09 22:03:00,81.0,73.1,29.77,NE,49,2.0,4.0,77,0.00,,,0.01,0,Wunderground v.1.15,2013-07-10 03:03:00,
2013-07-09 22:08:00,81.1,73.2,29.78,ENE,65,2.0,6.0,77,0.00,,,0.01,0,Wunderground v.1.15,2013-07-10 03:08:00,
2013-07-09 22:13:00,81.1,72.8,29.79,NE,38,4.0,6.0,76,0.00,,,0.01,0,Wunderground v.1.15,2013-07-10 03:13:00,
2013-07-09 22:18:00,81.2,72.9,29.80,NE,34,4.0,6.0,76,0.00,,,0.01,0,Wunderground v.1.15,2013-07-10 03:18:00,
2013-07-09 22:23:00,81.2,72.9,29.80,NE,34,3.0,5.0,76,0.00,,,0.01,0,Wunderground v.1.15,2013-07-10 03:23:00,
2013-07-09 22:28:00,81.2,72.9,29.81,NNE,33,2.0,5.0,76,0.00,,,0.01,0,Wunderground v.1.15,2013-07-10 03:28:00,
2013-07-09 22:33:00,81.1,72.8,29.81,NE,38,4.0,5.0,76,0.00,,,0.01,0,Wunderground v.1.15,2013-07-10 03:33:00,
2013-07-09 22:38:00,81.1,72.8,29.81,NNE,30,5.0,6.0,76,0.00,,,0.01,0,Wunderground v.1.15,2013-07-10 03:38:00,
2013-07-09 22:43:00,81.0,72.7,29.81,NNE,24,5.0,7.0,76,0.00,,,0.01,0,Wunderground v.1.15,2013-07-10 03:43:00,
2013-07-09 22:48:00,80.9,72.6,29.82,North,11,6.0,8.0,76,0.00,,,0.01,0,Wunderground v.1.15,2013-07-10 03:48:00,
2013-07-09 22:53:00,80.7,72.8,29.82,North,9,6.0,8.0,77,0.00,,,0.01,0,Wunderground v.1.15,2013-07-10 03:53:00,
2013-07-09 22:58:00,80.5,72.6,29.82,North,9,7.0,9.0,77,0.00,,,0.01,0,Wunderground v.1.15,2013-07-10 03:58:00,
2013-07-09 23:01:00,80.5,72.6,29.82,NNE,16,8.0,8.0,77,0.00,,,0.01,0,Wunderground v.1.15,2013-07-10 04:01:00,
2013-07-09 23:02:00,80.4,72.9,29.82,NNE,26,7.0,8.0,78,0.00,,,0.01,0,Wunderground v.1.15,2013-07-10 04:02:00,
2013-07-09 23:07:00,80.3,72.8,29.82,NNE,20,7.0,10.0,78,0.00,,,0.01,0,Wunderground v.1.15,2013-07-10 04:07:00,
2013-07-09 23:12:00,80.3,72.8,29.83,North,9,11.0,12.0,78,0.00,,,0.01,0,Wunderground v.1.15,2013-07-10 04:12:00,
2013-07-09 23:17:00,80.4,72.5,29.83,NNE,19,7.0,16.0,77,0.00,,,0.01,0,Wunderground v.1.15,2013-07-10 04:17:00,
2013-07-09 23:22:00,80.7,72.8,29.82,NNE,17,10.0,14.0,77,0.00,,,0.01,0,Wunderground v.1.15,2013-07-10 04:22:00,
2013-07-09 23:27:00,80.9,72.6,29.82,NNE,13,8.0,14.0,76,0.00,,,0.01,0,Wunderground v.1.15,2013-07-10 04:27:00,
2013-07-09 23:32:00,81.0,72.7,29.82,NE,34,11.0,16.0,76,0.00,,,0.01,0,Wunderground v.1.15,2013-07-10 04:32:00,
2013-07-09 23:37:00,81.1,72.8,29.83,NNE,24,12.0,16.0,76,0.00,,,0.01,0,Wunderground v.1.15,2013-07-10 04:37:00,
2013-07-09 23:43:00,81.2,72.9,29.82,North,5,9.0,14.0,76,0.00,,,0.01,0,Wunderground v.1.15,2013-07-10 04:43:00,
2013-07-09 23:48:00,81.1,72.8,29.82,NNE,32,11.0,14.0,76,0.00,,,0.01,0,Wunderground v.1.15,2013-07-10 04:48:00,
2013-07-09 23:53:00,81.0,72.7,29.83,NNE,32,8.0,12.0,76,0.00,,,0.01,0,Wunderground v.1.15,2013-07-10 04:53:00,
2013-07-09 23:58:00,80.9,72.6,29.83,NNE,32,9.0,13.0,76,0.00,,,0.01,0,Wunderground v.1.15,2013-07-10 04:58:00,